FW8687 Weather Reports


time (UTC)temp
F
wind
direction
speed
knots
gust
knots
rain 1hr
in
rain 24hr
in
rain mn
in
humidity
%
barometer
mb
20260503185108 70 356 3.5 5.2 0.00 0.00 0.00 43 1017.6
20260503183106 71 267 2.6 4.3 0.00 0.00 0.00 41 1017.7
20260503181101 70 183 1.7 2.6 0.00 0.00 0.00 43 1017.8
20260503175056 68 152 0.0 5.2 0.00 0.00 0.00 46 1018.1
20260503173053 68 87 0.0 0.9 0.00 0.00 0.00 46 1018.1
20260503171053 67 138 0.9 1.7 0.00 0.00 0.00 46 1018.6
20260503131030 54 78 0.0 0.9 0.00 0.00 0.00 70 1019.0
20260503081000 46 135 0.0 0.0 0.00 0.00 0.00 99 1015.9
20260503070955 48 135 0.0 0.0 0.00 0.00 0.00 99 1015.1
20260503054945 50 135 0.0 0.0 0.00 0.00 0.00 99 1014.8
20260503052944 51 135 0.0 0.0 0.00 0.00 0.00 99 1015.0
20260503050943 51 136 0.0 0.0 0.00 0.00 0.00 99 1014.8
20260503044942 51 135 0.0 0.0 0.00 0.00 0.00 99 1015.0
20260503042940 51 132 0.0 0.0 0.00 0.00 0.00 99 1014.8
20260503040940 51 133 0.0 0.0 0.00 0.00 0.00 99 1014.8
20260503034935 52 126 0.0 0.0 0.00 0.72 0.72 99 1014.5
20260503032930 52 126 0.0 0.0 0.00 0.72 0.72 99 1014.4
20260503030926 52 93 0.0 0.0 0.00 0.72 0.72 99 1014.0
20260503024925 52 93 0.0 0.0 0.00 0.72 0.72 99 1013.8
20260503022925 51 93 0.0 0.0 0.00 0.72 0.72 99 1013.2
20260503020921 51 93 0.0 0.0 0.00 0.72 0.72 99 1013.3
20260503014920 51 93 0.0 0.0 0.00 0.72 0.72 99 1012.9
20260503012915 51 93 0.0 0.0 0.00 0.72 0.72 99 1012.4
20260503010915 52 93 0.0 0.0 0.00 0.72 0.72 99 1012.6
20260503004914 53 93 0.0 0.0 0.00 0.72 0.72 97 1012.3
20260503002914 54 93 0.0 0.0 0.00 0.72 0.72 95 1012.0
20260503000914 55 93 0.0 0.0 0.00 0.72 0.72 92 1011.6
20260502234914 56 93 0.0 0.0 0.00 0.72 0.72 90 1011.3
20260502232912 56 93 0.0 0.0 0.00 0.72 0.72 90 1011.5
20260502230912 56 92 0.0 0.0 0.00 0.72 0.72 87 1011.1
20260502224907 56 83 0.0 0.0 0.00 0.72 0.72 86 1011.0
20260502222901 56 78 0.0 0.0 0.00 0.72 0.72 87 1011.3
20260502220859 56 63 0.0 0.9 0.00 0.72 0.72 87 1011.0
20260502214857 56 80 0.0 0.0 0.00 0.72 0.72 88 1010.9
20260502212852 56 80 0.0 0.0 0.00 0.72 0.72 90 1010.8
20260502210852 55 71 0.0 0.0 0.00 0.72 0.72 92 1010.6
20260502204850 55 72 0.9 0.9 0.00 0.72 0.72 91 1010.5
20260502202849 55 93 0.0 0.0 0.00 0.72 0.72 94 1011.0
20260502200848 55 80 0.0 0.9 0.00 0.72 0.72 93 1011.2
20260502194847 56 92 0.0 0.0 0.00 0.72 0.72 92 1011.3
20260502192844 55 83 0.0 0.0 0.00 0.72 0.72 92 1011.2
20260502190839 53 61 0.9 1.7 0.00 0.72 0.72 99 1010.9